Content
SEND FEEDBACK

Daily
Averages
Monthly
Summary
United States of America

POTEAU - CARL ALBERT STATE COLLEGE, OKLAHOMA


Home > North America > United States > Oklahoma
Elevation: 480 feet     Latitude: 35 02N     Longitude: 094 38W

WEATHER
 
SELECT A DAY
Number of Records: 297,887;   Date Range: 1/21/01 - 7/23/14
 
SHARE

PRINT THIS DATA

[ ← Previous Day ]
WEATHER ALMANAC - JANUARY 31, 2013
[ Next Day → ]
[ °C ]   °F
Weather ElementAverageHighLow
Temperature41.8 °F64.4 °F (2:55 pm)26.6 °F (5:35 am)
Dewpoint28.6 °F32 °F (12:55 am)19.4 °F (10:15 pm)
Humidity65.6 %100 % (12:55 am)24 % (2:35 pm)
Barometer30.18 in30.44 in (10:15 pm)30.06 in (3:15 pm)
Wind Speed7.8 mph21.9 mph (4:35 pm)
Wind Gust29.9 mph (5:55 pm)
Weather ElementAverage
Visibility9.9 mi
Wind DirectionSSW (207.6 °)

Weather ElementTotal
Precipitation---
Heating Degree Days19.5 (Base 65)
Averaged from 71 records on January 31, 2013
WEATHER CONDITIONS BREAKOUT
WIND DIRECTION BREAKOUT
WEATHER BY HOUR - JANUARY 31, 2013
[ °C ]   °F
Local TimeTemperatureDewpointHumidityBarometerVisibilityWind DirectionWind SpeedGust SpeedPrecipitationEventsConditions
12:35 AM32.0 °F30.2 °F93 %30.10 in10.0 miCalmClear
12:55 AM32.0 °F32.0 °F100 %30.10 in10.0 miCalmClear
1:15 AM30.2 °F28.4 °F93 %30.10 in10.0 miCalmClear
1:35 AM32.0 °F32.0 °F100 %30.09 in10.0 miCalmClear
1:55 AM32.0 °F30.2 °F93 %30.09 in10.0 miCalmClear
2:15 AM32.0 °F30.2 °F93 %30.08 in10.0 miCalmClear
2:35 AM32.0 °F32.0 °F100 %30.08 in10.0 miCalmClear
2:55 AM30.2 °F30.2 °F100 %30.08 in10.0 miCalmClear
3:15 AM30.2 °F28.4 °F93 %30.08 in10.0 miSSW (200°)4.6 mphClear
3:35 AM30.2 °F28.4 °F93 %30.08 in10.0 miSSW (200°)3.5 mphClear
3:55 AM32.0 °F30.2 °F93 %30.08 in10.0 miSouth (180°)5.8 mphClear
4:15 AM30.2 °F28.4 °F93 %30.07 in10.0 miSouth (170°)4.6 mphClear
4:35 AM32.0 °F32.0 °F100 %30.07 in10.0 miCalmClear
4:55 AM30.2 °F28.4 °F93 %30.08 in7.0 miCalmClear
5:15 AM28.4 °F28.4 °F100 %30.08 in10.0 miSouth (180°)5.8 mphClear
5:35 AM26.6 °F26.6 °F100 %30.09 in7.0 miSSW (200°)5.8 mphClear
5:55 AM28.4 °F28.4 °F100 %30.10 in10.0 miCalmClear
6:15 AM28.4 °F26.6 °F93 %30.10 in10.0 miSouth (180°)5.8 mphClear
6:35 AM28.4 °F26.6 °F93 %30.10 in10.0 miSouth (180°)3.5 mphClear
6:55 AM28.4 °F26.6 °F93 %30.11 in10.0 miSSW (200°)6.9 mphClear
7:15 AM30.2 °F28.4 °F93 %30.11 in10.0 miSSW (200°)6.9 mphClear
7:35 AM30.2 °F28.4 °F93 %30.13 in10.0 miSSW (210°)5.8 mphClear
7:55 AM30.2 °F30.2 °F100 %30.14 in10.0 miSW (220°)3.5 mphClear
8:15 AM32.0 °F30.2 °F93 %30.14 in10.0 miSSW (210°)5.8 mphClear
8:35 AM33.8 °F30.2 °F87 %30.14 in10.0 miSSW (210°)6.9 mphClear
8:55 AM37.4 °F32.0 °F81 %30.15 in10.0 miSW (230°)4.6 mphClear
9:15 AM37.4 °F32.0 °F81 %30.15 in10.0 miSW (220°)6.9 mphClear
9:35 AM41.0 °F32.0 °F70 %30.15 in10.0 miSW (230°)6.9 mphClear
9:55 AM42.8 °F32.0 °F66 %30.15 in10.0 miSW (230°)4.6 mphClear
10:15 AM44.6 °F30.2 °F57 %30.15 in10.0 miSW (220°)5.8 mphClear
10:35 AM48.2 °F32.0 °F54 %30.15 in10.0 miSSW (200°)6.9 mphClear
10:55 AM51.8 °F32.0 °F47 %30.16 in10.0 miSSW (210°)9.2 mphClear
11:15 AM51.8 °F32.0 °F47 %30.15 in10.0 miSW (220°)8.1 mphClear
11:35 AM53.6 °F32.0 °F44 %30.14 in10.0 miSSW (210°)6.9 mphClear
11:55 AM55.4 °F32.0 °F41 %30.13 in10.0 miSSW (200°)11.5 mphClear
12:15 PM55.4 °F28.4 °F36 %30.12 in10.0 miSW (230°)8.1 mphScattered Clouds
12:35 PM59.0 °F30.2 °F34 %30.11 in10.0 miSSW (210°)4.6 mphClear
12:55 PM59.0 °F26.6 °F29 %30.11 in10.0 miSW (220°)8.1 mphClear
1:15 PM60.8 °F28.4 °F29 %30.10 in10.0 miWSW (240°)10.4 mph17.3 mphClear
1:35 PM60.8 °F28.4 °F29 %30.08 in10.0 miSSW (210°)9.2 mph17.3 mphClear
1:55 PM62.6 °F28.4 °F27 %30.07 in10.0 miSW (220°)11.5 mph16.1 mphClear
2:15 PM62.6 °F28.4 °F27 %30.07 in10.0 miSW (230°)12.7 mph17.3 mphClear
2:35 PM62.6 °F24.8 °F24 %30.07 in10.0 miWSW (240°)15.0 mph23.0 mphClear
2:55 PM64.4 °F26.6 °F24 %30.07 in10.0 miWSW (240°)16.1 mph23.0 mphClear
3:15 PM62.6 °F28.4 °F27 %30.06 in10.0 miSW (220°)18.4 mph24.2 mphClear
3:35 PM62.6 °F26.6 °F26 %30.07 in10.0 miWSW (240°)18.4 mph25.3 mphClear
3:55 PM62.6 °F28.4 °F27 %30.08 in10.0 miWSW (240°)12.7 mph21.9 mphClear
4:15 PM62.6 °F32.0 °F32 %30.10 in10.0 miNorth (360°)13.8 mph19.6 mphClear
4:35 PM59.0 °F32.0 °F36 %30.11 in10.0 miNorth (350°)21.9 mph26.5 mphClear
4:55 PM55.4 °F30.2 °F38 %30.13 in10.0 miNorth (350°)18.4 mph27.6 mphClear
5:15 PM55.4 °F32.0 °F41 %30.15 in10.0 miNorth (360°)20.7 mph27.6 mphClear
5:35 PM51.8 °F32.0 °F47 %30.18 in10.0 miNorth (10°)16.1 mph25.3 mphClear
5:55 PM50.0 °F32.0 °F50 %30.21 in10.0 miNorth (360°)21.9 mph29.9 mphClear
6:15 PM48.2 °F32.0 °F54 %30.24 in10.0 miNNE (20°)11.5 mph17.3 mphClear
6:35 PM44.6 °F32.0 °F61 %30.27 in10.0 miNorth (10°)9.2 mphClear
6:55 PM44.6 °F32.0 °F61 %30.30 in10.0 miNorth (350°)9.2 mph18.4 mphClear
7:15 PM42.8 °F32.0 °F66 %30.32 in10.0 miNorth (350°)11.5 mph25.3 mphClear
7:35 PM41.0 °F30.2 °F65 %30.35 in10.0 miNorth (360°)12.7 mph21.9 mphClear
7:55 PM41.0 °F28.4 °F61 %30.36 in10.0 miNorth (350°)12.7 mph21.9 mphScattered Clouds
8:15 PM37.4 °F24.8 °F60 %30.38 in10.0 miNorth (350°)15.0 mph18.4 mphScattered Clouds
8:35 PM37.4 °F26.6 °F65 %30.39 in10.0 miNorth (360°)9.2 mphClear
8:55 PM37.4 °F26.6 °F65 %30.40 in10.0 miNNW (340°)8.1 mphClear
9:15 PM35.6 °F23.0 °F60 %30.41 in10.0 miNNW (340°)5.8 mphClear
9:35 PM35.6 °F24.8 °F65 %30.43 in10.0 miNNW (340°)5.8 mphClear
9:55 PM35.6 °F24.8 °F65 %30.43 in10.0 miNNW (340°)6.9 mphClear
10:15 PM33.8 °F19.4 °F56 %30.44 in10.0 miNorth (350°)9.2 mphClear
10:35 PM32.0 °F19.4 °F60 %30.44 in10.0 miNorth (360°)5.8 mphClear
10:55 PM32.0 °F19.4 °F60 %30.44 in10.0 miNorth (360°)3.5 mphClear
11:15 PM32.0 °F19.4 °F60 %30.44 in10.0 miCalmClear
11:35 PM32.0 °F19.4 °F60 %30.44 in10.0 miNorth (360°)5.8 mphClear
11:55 PM32.0 °F19.4 °F60 %30.44 in10.0 miNorth (360°)4.6 mphClear
Hourly data recorded from KRKR, located miles away from Poteau - Carl Albert State College, Oklahoma







STORIES FROM OUR PARTNERS